,,,PA_Meas_PMT16A,,PR_Meas_QMR101_102,,RH_Meas_QMH101,,SR_Meas_QMS101,,TA_Meas_QMH101,,GenWind,,GenWind,
date,time,status,PA,status,PR,status,RH,status,SR,status,TA,status,DirAvg,status,SpdAvg,
2011-11-22, 00:00:04,VALID,998.696,VALID,0,VALID,93.9206,VALID,0,VALID,23.9921,VALID,150,VALID,0.284375,
2011-11-22, 00:01:04,VALID,998.7,VALID,0,VALID,93.913,VALID,0.104696,VALID,23.9939,VALID,150,VALID,0.365625,
2011-11-22, 00:02:04,VALID,998.739,VALID,0,VALID,93.8672,VALID,0,VALID,23.9531,VALID,150,VALID,0.410547,
2011-11-22, 00:03:04,VALID,998.772,VALID,0,VALID,93.8443,VALID,0,VALID,23.9531,VALID,150,VALID,0.401563,
2011-11-22, 00:04:04,VALID,998.789,VALID,0,VALID,93.8138,VALID,0,VALID,23.914,VALID,150,VALID,0.00585938,
2011-11-22, 00:05:04,VALID,998.792,VALID,0,VALID,93.7833,VALID,0,VALID,23.9354,VALID,150,VALID,0,
2011-11-22, 00:06:04,VALID,998.776,VALID,0,VALID,93.7528,VALID,0,VALID,23.914,VALID,150,VALID,0.126953,
2011-11-22, 00:07:04,VALID,998.792,VALID,0,VALID,93.707,VALID,0,VALID,23.9354,VALID,150,VALID,0.348437,
2011-11-22, 00:08:04,VALID,998.761,VALID,0,VALID,93.6765,VALID,0,VALID,23.9354,VALID,150,VALID,0.184375,
2011-11-22, 00:09:04,VALID,998.724,VALID,0,VALID,93.6231,VALID,0,VALID,23.8945,VALID,150,VALID,0,
2011-11-22, 00:10:04,VALID,998.732,VALID,0,VALID,93.6154,VALID,0,VALID,23.9159,VALID,150,VALID,0.0914062,
2011-11-22, 00:11:04,VALID,998.737,VALID,0,VALID,93.5849,VALID,0,VALID,23.8963,VALID,150,VALID,0,
2011-11-22, 00:12:04,VALID,998.703,VALID,0,VALID,93.5544,VALID,0,VALID,23.9159,VALID,150,VALID,0.477734,
2011-11-22, 00:13:04,VALID,998.699,VALID,0,VALID,93.5315,VALID,0,VALID,23.8963,VALID,150,VALID,0.767578,
2011-11-22, 00:14:04,VALID,998.683,VALID,0,VALID,93.5239,VALID,0,VALID,23.8963,VALID,130,VALID,0.828516,
2011-11-22, 00:15:04,VALID,998.647,VALID,0,VALID,93.4934,VALID,0,VALID,23.8963,VALID,130,VALID,0.705859,
2011-11-22, 00:16:04,VALID,998.624,VALID,0,VALID,93.4476,VALID,0,VALID,23.8768,VALID,130,VALID,0.816797,
2011-11-22, 00:17:04,VALID,998.652,VALID,0,VALID,93.4094,VALID,0,VALID,23.8573,VALID,130,VALID,0.651953,
2011-11-22, 00:18:04,VALID,998.656,VALID,0,VALID,93.3866,VALID,0,VALID,23.8573,VALID,119,VALID,1.01719,
2011-11-22, 00:19:04,VALID,998.652,VALID,0,VALID,93.356,VALID,0,VALID,23.8378,VALID,116,VALID,0.801562,
2011-11-22, 00:20:04,VALID,998.65,VALID,0,VALID,93.3026,VALID,0,VALID,23.797,VALID,116,VALID,0.603516,
2011-11-22, 00:21:04,VALID,998.662,VALID,0,VALID,93.2797,VALID,0,VALID,23.7988,VALID,136,VALID,0.824609,
2011-11-22, 00:22:04,VALID,998.625,VALID,0,VALID,93.2721,VALID,0,VALID,23.7988,VALID,139,VALID,0.597656,
2011-11-22, 00:23:04,VALID,998.621,VALID,0,VALID,93.3026,VALID,0,VALID,23.7988,VALID,139,VALID,0.617188,
2011-11-22, 00:24:04,VALID,998.609,VALID,0,VALID,93.3103,VALID,0,VALID,23.8183,VALID,139,VALID,0.6,
2011-11-22, 00:25:04,VALID,998.57,VALID,0,VALID,93.3408,VALID,0,VALID,23.8183,VALID,157,VALID,0.85625,
2011-11-22, 00:26:04,VALID,998.541,VALID,0,VALID,93.3255,VALID,0,VALID,23.8183,VALID,158,VALID,0.797266,
2011-11-22, 00:27:04,VALID,998.521,VALID,0,VALID,93.2645,VALID,0,VALID,23.8183,VALID,158,VALID,0.75625,
2011-11-22, 00:28:04,VALID,998.493,VALID,0,VALID,93.1882,VALID,0,VALID,23.8378,VALID,152,VALID,0.613281,
2011-11-22, 00:29:04,VALID,998.456,VALID,0,VALID,93.0966,VALID,0,VALID,23.8183,VALID,152,VALID,0.683594,
2011-11-22, 00:30:04,VALID,998.454,VALID,0,VALID,93.0127,VALID,0,VALID,23.7988,VALID,152,VALID,0.401563,
2011-11-22, 00:31:04,VALID,998.441,VALID,0,VALID,92.9211,VALID,0,VALID,23.7988,VALID,152,VALID,0.3875,
2011-11-22, 00:32:04,VALID,998.435,VALID,0,VALID,92.9135,VALID,0,VALID,23.7793,VALID,152,VALID,0.470703,
2011-11-22, 00:33:04,VALID,998.44,VALID,0,VALID,92.8906,VALID,0,VALID,23.7793,VALID,152,VALID,0.314844,
2011-11-22, 00:34:04,VALID,998.463,VALID,0,VALID,92.8906,VALID,0.104696,VALID,23.7597,VALID,152,VALID,0.254687,
2011-11-22, 00:35:04,VALID,998.488,VALID,0,VALID,92.883,VALID,0,VALID,23.7597,VALID,152,VALID,0.0121094,
2011-11-22, 00:36:04,VALID,998.516,VALID,0,VALID,92.9059,VALID,0,VALID,23.6994,VALID,152,VALID,0,
2011-11-22, 00:37:04,VALID,998.503,VALID,0,VALID,92.9517,VALID,0,VALID,23.7189,VALID,152,VALID,0.227734,
2011-11-22, 00:38:04,VALID,998.518,VALID,0,VALID,92.9822,VALID,0,VALID,23.6994,VALID,152,VALID,0.325391,
2011-11-22, 00:39:04,VALID,998.47,VALID,0,VALID,93.0203,VALID,0,VALID,23.7012,VALID,152,VALID,0.228516,
2011-11-22, 00:40:04,VALID,998.449,VALID,0,VALID,93.0508,VALID,0,VALID,23.7225,VALID,152,VALID,0.482031,
2011-11-22, 00:41:04,VALID,998.44,VALID,0,VALID,93.0966,VALID,0,VALID,23.703,VALID,152,VALID,0.406641,
2011-11-22, 00:42:04,VALID,998.428,VALID,0,VALID,93.0966,VALID,0,VALID,23.6817,VALID,152,VALID,0.270703,
2011-11-22, 00:43:04,VALID,998.426,VALID,0,VALID,93.1424,VALID,0,VALID,23.703,VALID,152,VALID,0.256641,
2011-11-22, 00:44:04,VALID,998.429,VALID,0,VALID,93.1729,VALID,0,VALID,23.6817,VALID,152,VALID,0.305469,
2011-11-22, 00:45:04,VALID,998.415,VALID,0,VALID,93.1882,VALID,0,VALID,23.6622,VALID,152,VALID,0.633203,
2011-11-22, 00:46:04,VALID,998.408,VALID,0,VALID,93.1958,VALID,0,VALID,23.6835,VALID,133,VALID,0.577734,
2011-11-22, 00:47:04,VALID,998.428,VALID,0,VALID,93.2263,VALID,0,VALID,23.664,VALID,133,VALID,0.504687,
2011-11-22, 00:48:04,VALID,998.424,VALID,0,VALID,93.2111,VALID,0,VALID,23.6427,VALID,133,VALID,0.176172,
2011-11-22, 00:49:04,VALID,998.391,VALID,0,VALID,93.2263,VALID,0,VALID,23.6445,VALID,133,VALID,0,
2011-11-22, 00:50:04,VALID,998.371,VALID,0,VALID,93.2263,VALID,0,VALID,23.625,VALID,133,VALID,0,
2011-11-22, 00:51:04,VALID,998.368,VALID,0,VALID,93.2416,VALID,0,VALID,23.6036,VALID,133,VALID,0,
2011-11-22, 00:52:04,VALID,998.394,VALID,0,VALID,93.2645,VALID,0,VALID,23.5841,VALID,133,VALID,0,
2011-11-22, 00:53:04,VALID,998.365,VALID,0,VALID,93.3103,VALID,0,VALID,23.625,VALID,133,VALID,0,
2011-11-22, 00:54:04,VALID,998.39,VALID,0,VALID,93.3484,VALID,0,VALID,23.6232,VALID,133,VALID,0.003125,
2011-11-22, 00:55:04,VALID,998.36,VALID,0,VALID,93.4018,VALID,0,VALID,23.6622,VALID,133,VALID,0.4,
2011-11-22, 00:56:04,VALID,998.36,VALID,0,VALID,93.4247,VALID,0,VALID,23.6622,VALID,133,VALID,0.483594,
2011-11-22, 00:57:04,VALID,998.349,VALID,0,VALID,93.4247,VALID,0,VALID,23.6622,VALID,132,VALID,0.573438,
2011-11-22, 00:58:04,VALID,998.322,VALID,0,VALID,93.3866,VALID,0,VALID,23.6817,VALID,105,VALID,0.574609,
2011-11-22, 00:59:04,VALID,998.289,VALID,0,VALID,93.3255,VALID,0,VALID,23.7012,VALID,105,VALID,0.4,
2011-11-22, 01:00:04,VALID,998.262,VALID,0,VALID,93.2263,VALID,0,VALID,23.7207,VALID,105,VALID,0.401563,
2011-11-22, 01:01:04,VALID,998.238,VALID,0,VALID,93.1348,VALID,0,VALID,23.7207,VALID,105,VALID,0.38125,
2011-11-22, 01:02:04,VALID,998.235,VALID,0,VALID,93.0966,VALID,0,VALID,23.7402,VALID,105,VALID,0.405859,
2011-11-22, 01:03:04,VALID,998.261,VALID,0,VALID,93.0051,VALID,0,VALID,23.7384,VALID,105,VALID,0.473437,
2011-11-22, 01:04:04,VALID,998.246,VALID,0,VALID,92.8754,VALID,0,VALID,23.7597,VALID,105,VALID,0.692969,
2011-11-22, 01:05:04,VALID,998.268,VALID,0,VALID,92.7228,VALID,0,VALID,23.7597,VALID,105,VALID,0.703125,
2011-11-22, 01:06:04,VALID,998.239,VALID,0,VALID,92.5854,VALID,0,VALID,23.7793,VALID,105,VALID,0.640234,
2011-11-22, 01:07:04,VALID,998.247,VALID,0,VALID,92.4939,VALID,0,VALID,23.7597,VALID,105,VALID,0.596484,
2011-11-22, 01:08:04,VALID,998.227,VALID,0,VALID,92.4405,VALID,0,VALID,23.7579,VALID,105,VALID,0.666797,
2011-11-22, 01:09:04,VALID,998.197,VALID,0,VALID,92.3489,VALID,0.104696,VALID,23.7579,VALID,105,VALID,0.369141,
2011-11-22, 01:10:04,VALID,998.244,VALID,0,VALID,92.4176,VALID,0,VALID,23.7579,VALID,105,VALID,0.4375,
2011-11-22, 01:11:04,VALID,998.197,VALID,0,VALID,92.5244,VALID,0,VALID,23.7793,VALID,105,VALID,0.458594,
2011-11-22, 01:12:04,VALID,998.177,VALID,0,VALID,92.5778,VALID,0,VALID,23.7384,VALID,105,VALID,0.545703,
2011-11-22, 01:13:04,VALID,998.161,VALID,0,VALID,92.5626,VALID,0,VALID,23.6994,VALID,105,VALID,0.473828,
2011-11-22, 01:14:04,VALID,998.118,VALID,0,VALID,92.7075,VALID,0,VALID,23.6604,VALID,105,VALID,0.379687,
2011-11-22, 01:15:04,VALID,998.123,VALID,0,VALID,92.8372,VALID,0,VALID,23.6427,VALID,105,VALID,0.279297,
2011-11-22, 01:16:04,VALID,998.134,VALID,0,VALID,92.9517,VALID,0,VALID,23.6214,VALID,105,VALID,0.258594,
2011-11-22, 01:17:04,VALID,998.15,VALID,0,VALID,93.0661,VALID,0,VALID,23.6232,VALID,105,VALID,0.133594,
2011-11-22, 01:18:04,VALID,998.14,VALID,0,VALID,93.15,VALID,0,VALID,23.5823,VALID,105,VALID,0.101172,
2011-11-22, 01:19:04,VALID,998.117,VALID,0,VALID,93.2034,VALID,0,VALID,23.5646,VALID,105,VALID,0,
2011-11-22, 01:20:04,VALID,998.081,VALID,0,VALID,93.2568,VALID,0,VALID,23.5451,VALID,105,VALID,0,
2011-11-22, 01:21:04,VALID,998.064,VALID,0,VALID,93.3408,VALID,0,VALID,23.5043,VALID,105,VALID,0,
2011-11-22, 01:22:04,VALID,998.058,VALID,0,VALID,93.4018,VALID,0,VALID,23.5256,VALID,105,VALID,0,
2011-11-22, 01:23:04,VALID,998.033,VALID,0,VALID,93.4628,VALID,0,VALID,23.4848,VALID,105,VALID,0,
2011-11-22, 01:24:04,VALID,998.045,VALID,0,VALID,93.5163,VALID,0,VALID,23.4848,VALID,105,VALID,0,
2011-11-22, 01:25:04,VALID,998.066,VALID,0,VALID,93.5544,VALID,0,VALID,23.4848,VALID,105,VALID,0,
2011-11-22, 01:26:04,VALID,998.045,VALID,0,VALID,93.6154,VALID,0,VALID,23.5256,VALID,105,VALID,0.667188,
2011-11-22, 01:27:04,VALID,998.031,VALID,0,VALID,93.6307,VALID,0,VALID,23.5256,VALID,105,VALID,0.667578,
2011-11-22, 01:28:04,VALID,998.006,VALID,0,VALID,93.6383,VALID,0,VALID,23.5451,VALID,105,VALID,0.578125,
2011-11-22, 01:29:04,VALID,997.958,VALID,0,VALID,93.6307,VALID,0,VALID,23.5256,VALID,105,VALID,0.527344,
2011-11-22, 01:30:04,VALID,997.939,VALID,0,VALID,93.6231,VALID,0,VALID,23.5043,VALID,105,VALID,0.323047,
2011-11-22, 01:31:04,VALID,997.912,VALID,0,VALID,93.6002,VALID,0.104696,VALID,23.4635,VALID,105,VALID,0.284375,
2011-11-22, 01:32:04,VALID,997.89,VALID,0,VALID,93.5697,VALID,0,VALID,23.4848,VALID,134,VALID,0.769531,
2011-11-22, 01:33:04,VALID,997.857,VALID,0,VALID,93.5544,VALID,0.104696,VALID,23.5061,VALID,135,VALID,0.832422,
2011-11-22, 01:34:04,VALID,997.833,VALID,0,VALID,93.5391,VALID,0,VALID,23.4848,VALID,135,VALID,0.849219,
2011-11-22, 01:35:04,VALID,997.882,VALID,0,VALID,93.4857,VALID,0,VALID,23.5043,VALID,135,VALID,0.808203,
2011-11-22, 01:36:04,VALID,997.884,VALID,0,VALID,93.4094,VALID,0,VALID,23.5256,VALID,135,VALID,0.801562,
2011-11-22, 01:37:04,VALID,997.895,VALID,0,VALID,93.3179,VALID,0,VALID,23.5043,VALID,135,VALID,0.803125,
2011-11-22, 01:38:04,VALID,997.858,VALID,0,VALID,93.234,VALID,0,VALID,23.483,VALID,135,VALID,0.725781,
2011-11-22, 01:39:04,VALID,997.916,VALID,0,VALID,93.1348,VALID,0,VALID,23.4866,VALID,135,VALID,0.741406,
2011-11-22, 01:40:04,VALID,997.95,VALID,0,VALID,93.0737,VALID,0,VALID,23.4866,VALID,135,VALID,0.842188,
2011-11-22, 01:41:04,VALID,997.921,VALID,0,VALID,93.0051,VALID,0,VALID,23.4866,VALID,135,VALID,0.798437,
2011-11-22, 01:42:04,VALID,997.917,VALID,0,VALID,92.9211,VALID,0,VALID,23.5079,VALID,135,VALID,0.657031,
2011-11-22, 01:43:04,VALID,997.917,VALID,0,VALID,92.8525,VALID,0,VALID,23.4475,VALID,135,VALID,0.707422,
2011-11-22, 01:44:04,VALID,997.854,VALID,0,VALID,92.8525,VALID,0,VALID,23.428,VALID,135,VALID,0.596094,
2011-11-22, 01:45:04,VALID,997.826,VALID,0,VALID,92.9059,VALID,0,VALID,23.4493,VALID,135,VALID,0.560938,
2011-11-22, 01:46:04,VALID,997.792,VALID,0,VALID,92.9517,VALID,0,VALID,23.4493,VALID,135,VALID,0.317969,
2011-11-22, 01:47:04,VALID,997.797,VALID,0,VALID,93.0127,VALID,0,VALID,23.428,VALID,135,VALID,0.333203,
2011-11-22, 01:48:04,VALID,997.77,VALID,0,VALID,93.089,VALID,0,VALID,23.428,VALID,135,VALID,0.450391,
2011-11-22, 01:49:04,VALID,997.766,VALID,0,VALID,93.1805,VALID,0,VALID,23.428,VALID,135,VALID,0.533594,
2011-11-22, 01:50:04,VALID,997.726,VALID,0,VALID,93.2187,VALID,0,VALID,23.4493,VALID,135,VALID,0.33125,
2011-11-22, 01:51:04,VALID,997.663,VALID,0,VALID,93.3026,VALID,0,VALID,23.428,VALID,135,VALID,0.435937,
2011-11-22, 01:52:04,VALID,997.655,VALID,0,VALID,93.3484,VALID,0,VALID,23.428,VALID,135,VALID,0.429688,
2011-11-22, 01:53:04,VALID,997.603,VALID,0,VALID,93.3866,VALID,0,VALID,23.428,VALID,135,VALID,0.529688,
2011-11-22, 01:54:04,VALID,997.584,VALID,0,VALID,93.4323,VALID,0,VALID,23.4475,VALID,148,VALID,0.685938,
2011-11-22, 01:55:04,VALID,997.571,VALID,0,VALID,93.4323,VALID,0,VALID,23.4884,VALID,156,VALID,0.816016,
2011-11-22, 01:56:04,VALID,997.561,VALID,0,VALID,93.4094,VALID,0,VALID,23.4688,VALID,156,VALID,0.757031,
2011-11-22, 01:57:04,VALID,997.541,VALID,0,VALID,93.3331,VALID,0,VALID,23.4475,VALID,158,VALID,0.830078,
2011-11-22, 01:58:04,VALID,997.513,VALID,0,VALID,93.2645,VALID,0,VALID,23.4671,VALID,158,VALID,0.745703,
2011-11-22, 01:59:04,VALID,997.524,VALID,0,VALID,93.2263,VALID,0,VALID,23.4884,VALID,158,VALID,0.781641,
2011-11-22, 02:00:04,VALID,997.491,VALID,0,VALID,93.1882,VALID,0,VALID,23.5061,VALID,158,VALID,0.552344,
2011-11-22, 02:01:04,VALID,997.505,VALID,0,VALID,93.1424,VALID,0,VALID,23.5274,VALID,167,VALID,0.748828,
2011-11-22, 02:02:04,VALID,997.549,VALID,0,VALID,93.1271,VALID,0,VALID,23.5256,VALID,171,VALID,0.99375,
2011-11-22, 02:03:04,VALID,997.562,VALID,0,VALID,93.0203,VALID,0,VALID,23.5664,VALID,165,VALID,1.16484,
2011-11-22, 02:04:04,VALID,997.589,VALID,0,VALID,92.883,VALID,0,VALID,23.6036,VALID,162,VALID,1.41289,
2011-11-22, 02:05:04,VALID,997.628,VALID,0,VALID,92.6999,VALID,0,VALID,23.6427,VALID,165,VALID,1.40195,
2011-11-22, 02:06:04,VALID,997.632,VALID,0,VALID,92.5091,VALID,0,VALID,23.6622,VALID,166,VALID,0.954297,
2011-11-22, 02:07:04,VALID,997.68,VALID,0,VALID,92.3337,VALID,0,VALID,23.6622,VALID,166,VALID,0.833594,
2011-11-22, 02:08:04,VALID,997.697,VALID,0,VALID,92.2574,VALID,0,VALID,23.6817,VALID,166,VALID,0.965625,
2011-11-22, 02:09:04,VALID,997.689,VALID,0,VALID,92.1887,VALID,0,VALID,23.6622,VALID,164,VALID,1.02188,
2011-11-22, 02:10:04,VALID,997.644,VALID,0,VALID,92.12,VALID,0,VALID,23.6622,VALID,162,VALID,0.952734,
2011-11-22, 02:11:04,VALID,997.597,VALID,0,VALID,92.059,VALID,0,VALID,23.6427,VALID,158,VALID,0.744922,
2011-11-22, 02:12:04,VALID,997.555,VALID,0,VALID,92.059,VALID,0,VALID,23.6232,VALID,158,VALID,0.844141,
2011-11-22, 02:13:04,VALID,997.515,VALID,0,VALID,92.12,VALID,0,VALID,23.5841,VALID,158,VALID,0.808984,
2011-11-22, 02:14:04,VALID,997.48,VALID,0,VALID,92.2955,VALID,0,VALID,23.5646,VALID,158,VALID,0.639063,
2011-11-22, 02:15:04,VALID,997.444,VALID,0,VALID,92.4252,VALID,0,VALID,23.5451,VALID,158,VALID,0.585938,
2011-11-22, 02:16:04,VALID,997.434,VALID,0,VALID,92.5244,VALID,0,VALID,23.5061,VALID,158,VALID,0.401563,
2011-11-22, 02:17:04,VALID,997.453,VALID,0,VALID,92.6236,VALID,0,VALID,23.4671,VALID,158,VALID,0.269922,
2011-11-22, 02:18:04,VALID,997.457,VALID,0,VALID,92.7304,VALID,0,VALID,23.4475,VALID,158,VALID,0.410547,
2011-11-22, 02:19:04,VALID,997.504,VALID,0,VALID,92.7762,VALID,0,VALID,23.4085,VALID,158,VALID,0.288672,
2011-11-22, 02:20:04,VALID,997.493,VALID,0,VALID,92.8448,VALID,0,VALID,23.389,VALID,158,VALID,0.352344,
2011-11-22, 02:21:04,VALID,997.52,VALID,0,VALID,92.9059,VALID,0,VALID,23.3695,VALID,158,VALID,0.371094,
2011-11-22, 02:22:04,VALID,997.531,VALID,0,VALID,92.9364,VALID,0,VALID,23.35,VALID,158,VALID,0.462891,
2011-11-22, 02:23:04,VALID,997.552,VALID,0,VALID,92.9288,VALID,0,VALID,23.3305,VALID,158,VALID,0.326172,
2011-11-22, 02:24:04,VALID,997.56,VALID,0,VALID,92.9211,VALID,0,VALID,23.3305,VALID,154,VALID,0.450781,
2011-11-22, 02:25:04,VALID,997.566,VALID,0,VALID,92.8983,VALID,0,VALID,23.311,VALID,142,VALID,0.216406,
2011-11-22, 02:26:04,VALID,997.589,VALID,0,VALID,92.8983,VALID,0,VALID,23.3127,VALID,142,VALID,0.205469,
2011-11-22, 02:27:04,VALID,997.6,VALID,0,VALID,92.9135,VALID,0,VALID,23.2719,VALID,142,VALID,0,
2011-11-22, 02:28:04,VALID,997.634,VALID,0,VALID,92.9593,VALID,0,VALID,23.2524,VALID,142,VALID,0,
2011-11-22, 02:29:04,VALID,997.612,VALID,0,VALID,93.0127,VALID,0,VALID,23.2329,VALID,142,VALID,0,
2011-11-22, 02:30:04,VALID,997.611,VALID,0,VALID,93.0661,VALID,0,VALID,23.2524,VALID,142,VALID,0.0714844,
2011-11-22, 02:31:04,VALID,997.597,VALID,0,VALID,93.15,VALID,0,VALID,23.2524,VALID,142,VALID,0.230859,
2011-11-22, 02:32:04,VALID,997.569,VALID,0,VALID,93.1805,VALID,0,VALID,23.2719,VALID,153,VALID,0.490625,
2011-11-22, 02:33:04,VALID,997.558,VALID,0,VALID,93.2568,VALID,0,VALID,23.311,VALID,169,VALID,0.622656,
2011-11-22, 02:34:04,VALID,997.535,VALID,0,VALID,93.2874,VALID,0,VALID,23.3305,VALID,183,VALID,0.544531,
2011-11-22, 02:35:04,VALID,997.546,VALID,0,VALID,93.3408,VALID,0,VALID,23.3695,VALID,220,VALID,0.730078,
2011-11-22, 02:36:04,VALID,997.534,VALID,0,VALID,93.3408,VALID,0,VALID,23.389,VALID,220,VALID,0.646094,
2011-11-22, 02:37:04,VALID,997.533,VALID,0,VALID,93.3179,VALID,0,VALID,23.4103,VALID,220,VALID,0.782422,
2011-11-22, 02:38:04,VALID,997.515,VALID,0,VALID,93.3103,VALID,0,VALID,23.389,VALID,220,VALID,0.889063,
2011-11-22, 02:39:04,VALID,997.497,VALID,0,VALID,93.2874,VALID,0.104696,VALID,23.4263,VALID,220,VALID,0.757031,
2011-11-22, 02:40:04,VALID,997.452,VALID,0,VALID,93.2645,VALID,0,VALID,23.4653,VALID,220,VALID,0.985547,
2011-11-22, 02:41:04,VALID,997.455,VALID,0,VALID,93.1882,VALID,0,VALID,23.5061,VALID,220,VALID,0.753906,
2011-11-22, 02:42:04,VALID,997.443,VALID,0,VALID,93.1577,VALID,0,VALID,23.5043,VALID,220,VALID,0.378516,
2011-11-22, 02:43:04,VALID,997.442,VALID,0,VALID,93.089,VALID,0,VALID,23.5238,VALID,220,VALID,0.474219,
2011-11-22, 02:44:04,VALID,997.438,VALID,0,VALID,93.0356,VALID,0,VALID,23.5451,VALID,220,VALID,0.271875,
2011-11-22, 02:45:04,VALID,997.466,VALID,0,VALID,92.9593,VALID,0,VALID,23.5238,VALID,220,VALID,0.0515625,
2011-11-22, 02:46:04,VALID,997.476,VALID,0,VALID,92.8754,VALID,0,VALID,23.4635,VALID,220,VALID,0.214062,
2011-11-22, 02:47:04,VALID,997.5,VALID,0,VALID,92.822,VALID,0,VALID,23.4263,VALID,220,VALID,0.365234,
2011-11-22, 02:48:04,VALID,997.486,VALID,0,VALID,92.7685,VALID,0.104696,VALID,23.3677,VALID,220,VALID,0.312891,
2011-11-22, 02:49:04,VALID,997.499,VALID,0,VALID,92.8067,VALID,0,VALID,23.3287,VALID,220,VALID,0.589844,
2011-11-22, 02:50:04,VALID,997.481,VALID,0,VALID,92.9211,VALID,0,VALID,23.3092,VALID,220,VALID,0.489844,
2011-11-22, 02:51:04,VALID,997.491,VALID,0,VALID,93.0432,VALID,0,VALID,23.2897,VALID,220,VALID,0.413281,
2011-11-22, 02:52:04,VALID,997.509,VALID,0,VALID,93.1043,VALID,0.104696,VALID,23.2507,VALID,220,VALID,0.65625,
2011-11-22, 02:53:04,VALID,997.521,VALID,0,VALID,93.1424,VALID,0.104696,VALID,23.2117,VALID,220,VALID,0.384766,
2011-11-22, 02:54:04,VALID,997.542,VALID,0,VALID,93.2263,VALID,0.104696,VALID,23.1726,VALID,220,VALID,0.426562,
2011-11-22, 02:55:04,VALID,997.561,VALID,0,VALID,93.2797,VALID,0.104696,VALID,23.1531,VALID,213,VALID,0.473047,
2011-11-22, 02:56:04,VALID,997.566,VALID,0,VALID,93.3255,VALID,0,VALID,23.1336,VALID,178,VALID,0.479297,
2011-11-22, 02:57:04,VALID,997.598,VALID,0,VALID,93.3484,VALID,0,VALID,23.1319,VALID,159,VALID,0.803516,
2011-11-22, 02:58:04,VALID,997.613,VALID,0,VALID,93.4476,VALID,0.104696,VALID,23.1726,VALID,158,VALID,0.738281,
2011-11-22, 02:59:04,VALID,997.632,VALID,0,VALID,93.4934,VALID,0,VALID,23.1921,VALID,158,VALID,0.670703,
2011-11-22, 03:00:04,VALID,997.633,VALID,0,VALID,93.4934,VALID,0.104696,VALID,23.1921,VALID,158,VALID,0.684375,
2011-11-22, 03:01:04,VALID,997.649,VALID,0,VALID,93.5315,VALID,0,VALID,23.2117,VALID,158,VALID,0.582812,
2011-11-22, 03:02:04,VALID,997.68,VALID,0,VALID,93.5544,VALID,0,VALID,23.2312,VALID,158,VALID,0.492188,
2011-11-22, 03:03:04,VALID,997.701,VALID,0,VALID,93.5697,VALID,0,VALID,23.2312,VALID,158,VALID,0,
2011-11-22, 03:04:04,VALID,997.731,VALID,0,VALID,93.5697,VALID,0,VALID,23.2312,VALID,158,VALID,0.397656,
2011-11-22, 03:05:04,VALID,997.686,VALID,0,VALID,93.5544,VALID,0.104696,VALID,23.1921,VALID,59,VALID,0.864062,
2011-11-22, 03:06:04,VALID,997.737,VALID,0,VALID,93.5163,VALID,0.104696,VALID,23.1531,VALID,48,VALID,0.925,
2011-11-22, 03:07:04,VALID,997.715,VALID,0,VALID,93.4934,VALID,0,VALID,23.0946,VALID,44,VALID,0.897656,
2011-11-22, 03:08:04,VALID,997.71,VALID,0,VALID,93.4552,VALID,0.104696,VALID,23.0556,VALID,44,VALID,0.785937,
2011-11-22, 03:09:04,VALID,997.67,VALID,0,VALID,93.4171,VALID,0,VALID,23.0183,VALID,44,VALID,0.757422,
2011-11-22, 03:10:04,VALID,997.678,VALID,0,VALID,93.44,VALID,0.104696,VALID,22.9776,VALID,44,VALID,0.684766,
2011-11-22, 03:11:04,VALID,997.709,VALID,0,VALID,93.4781,VALID,0,VALID,22.9598,VALID,44,VALID,0.665234,
2011-11-22, 03:12:04,VALID,997.71,VALID,0,VALID,93.501,VALID,0,VALID,22.9208,VALID,44,VALID,0.592969,
2011-11-22, 03:13:04,VALID,997.7,VALID,0,VALID,93.5544,VALID,0,VALID,22.9013,VALID,44,VALID,0.305078,
2011-11-22, 03:14:04,VALID,997.698,VALID,0,VALID,93.6078,VALID,0,VALID,22.9013,VALID,44,VALID,0.0429688,
2011-11-22, 03:15:04,VALID,997.699,VALID,0,VALID,93.6307,VALID,0,VALID,22.8623,VALID,44,VALID,0,
2011-11-22, 03:16:04,VALID,997.68,VALID,0,VALID,93.6765,VALID,0,VALID,22.841,VALID,44,VALID,0.110156,
2011-11-22, 03:17:04,VALID,997.684,VALID,0,VALID,93.7223,VALID,0,VALID,22.8818,VALID,44,VALID,0.144141,
2011-11-22, 03:18:04,VALID,997.664,VALID,0,VALID,93.7528,VALID,0,VALID,22.9013,VALID,44,VALID,0.255859,
2011-11-22, 03:19:04,VALID,997.668,VALID,0,VALID,93.8062,VALID,0,VALID,22.9208,VALID,44,VALID,0.277344,
2011-11-22, 03:20:04,VALID,997.678,VALID,0,VALID,93.852,VALID,0,VALID,22.9208,VALID,44,VALID,0.361719,
2011-11-22, 03:21:04,VALID,997.636,VALID,0,VALID,93.8825,VALID,0,VALID,22.9403,VALID,44,VALID,0.402344,
2011-11-22, 03:22:04,VALID,997.622,VALID,0,VALID,93.9054,VALID,0,VALID,22.9793,VALID,44,VALID,0.370703,
2011-11-22, 03:23:04,VALID,997.588,VALID,0,VALID,93.9588,VALID,0,VALID,22.9776,VALID,45,VALID,0.467969,
2011-11-22, 03:24:04,VALID,997.575,VALID,0,VALID,93.9588,VALID,0,VALID,23.0183,VALID,124,VALID,0.613672,
2011-11-22, 03:25:04,VALID,997.553,VALID,0,VALID,93.9893,VALID,0,VALID,23.0769,VALID,154,VALID,1.06641,
2011-11-22, 03:26:04,VALID,997.539,VALID,0,VALID,94.0198,VALID,0.104696,VALID,23.0751,VALID,150,VALID,0.917969,
2011-11-22, 03:27:04,VALID,997.542,VALID,0,VALID,94.0122,VALID,0,VALID,23.1159,VALID,150,VALID,0.875,
2011-11-22, 03:28:04,VALID,997.536,VALID,0,VALID,93.9893,VALID,0,VALID,23.1549,VALID,150,VALID,0.873438,
2011-11-22, 03:29:04,VALID,997.549,VALID,0,VALID,93.9817,VALID,0,VALID,23.1744,VALID,150,VALID,0.782812,
2011-11-22, 03:30:04,VALID,997.503,VALID,0,VALID,93.9283,VALID,0,VALID,23.1921,VALID,150,VALID,0.467969,
2011-11-22, 03:31:04,VALID,997.509,VALID,0,VALID,93.8977,VALID,0,VALID,23.2117,VALID,150,VALID,0.712109,
2011-11-22, 03:32:04,VALID,997.521,VALID,0,VALID,93.852,VALID,0,VALID,23.2312,VALID,150,VALID,0.380078,
2011-11-22, 03:33:04,VALID,997.494,VALID,0,VALID,93.7985,VALID,0.104696,VALID,23.2524,VALID,150,VALID,0.172266,
2011-11-22, 03:34:04,VALID,997.522,VALID,0,VALID,93.7146,VALID,0,VALID,23.2524,VALID,150,VALID,0.326562,
2011-11-22, 03:35:04,VALID,997.547,VALID,0,VALID,93.6383,VALID,0,VALID,23.2312,VALID,150,VALID,0.377734,
2011-11-22, 03:36:04,VALID,997.527,VALID,0,VALID,93.5926,VALID,0.104696,VALID,23.2524,VALID,150,VALID,0.248047,
2011-11-22, 03:37:04,VALID,997.544,VALID,0,VALID,93.5544,VALID,0,VALID,23.2524,VALID,150,VALID,0.272656,
2011-11-22, 03:38:04,VALID,997.564,VALID,0,VALID,93.501,VALID,0,VALID,23.2524,VALID,150,VALID,0.384375,
2011-11-22, 03:39:04,VALID,997.572,VALID,0,VALID,93.4018,VALID,0,VALID,23.1921,VALID,150,VALID,0,
2011-11-22, 03:40:04,VALID,997.609,VALID,0,VALID,93.3255,VALID,0,VALID,23.1744,VALID,150,VALID,0,
2011-11-22, 03:41:04,VALID,997.621,VALID,0,VALID,93.2721,VALID,0,VALID,23.1141,VALID,150,VALID,0,
2011-11-22, 03:42:04,VALID,997.654,VALID,0,VALID,93.2416,VALID,0,VALID,23.0751,VALID,150,VALID,0,
2011-11-22, 03:43:04,VALID,997.659,VALID,0,VALID,93.2034,VALID,0,VALID,23.0573,VALID,150,VALID,0,
2011-11-22, 03:44:04,VALID,997.634,VALID,0,VALID,93.2645,VALID,0,VALID,23.0573,VALID,135,VALID,0.683984,
2011-11-22, 03:45:04,VALID,997.651,VALID,0,VALID,93.3331,VALID,0,VALID,23.0573,VALID,120,VALID,0.567969,